TimeCST,TemperatureF,Dew PointF,Humidity,Sea Level PressureIn,VisibilityMPH,Wind Direction,Wind SpeedMPH,Gust SpeedMPH,PrecipitationIn,Events,Conditions,WindDirDegrees,DateUTC
12:53 AM,28.9,28.0,96,30.28,10.0,Calm,Calm,-,N/A,,Clear,0,2012-12-12 06:53:00
1:53 AM,28.9,27.0,92,30.28,10.0,Calm,Calm,-,N/A,,Clear,0,2012-12-12 07:53:00
2:53 AM,28.0,27.0,96,30.28,9.0,Calm,Calm,-,N/A,,Clear,0,2012-12-12 08:53:00
3:53 AM,28.0,26.1,92,30.28,8.0,Calm,Calm,-,N/A,,Clear,0,2012-12-12 09:53:00
4:53 AM,26.1,23.0,88,30.29,8.0,Calm,Calm,-,N/A,,Clear,0,2012-12-12 10:53:00
5:53 AM,28.9,27.0,92,30.31,9.0,Calm,Calm,-,N/A,,Clear,0,2012-12-12 11:53:00
6:53 AM,27.0,26.1,96,30.34,8.0,Calm,Calm,-,N/A,,Clear,0,2012-12-12 12:53:00
7:53 AM,30.0,28.9,96,30.36,10.0,Calm,Calm,-,N/A,,Clear,0,2012-12-12 13:53:00
8:53 AM,36.0,30.0,79,30.38,10.0,Calm,Calm,-,N/A,,Clear,0,2012-12-12 14:53:00
9:53 AM,41.0,28.9,62,30.38,10.0,East,4.6,-,N/A,,Clear,80,2012-12-12 15:53:00
10:53 AM,44.1,24.1,45,30.38,10.0,NNE,4.6,-,N/A,,Clear,30,2012-12-12 16:53:00
11:53 AM,46.9,19.9,34,30.36,10.0,NE,4.6,-,N/A,,Clear,40,2012-12-12 17:53:00
12:53 PM,48.0,25.0,41,30.33,10.0,NNE,4.6,-,N/A,,Clear,20,2012-12-12 18:53:00
1:53 PM,48.0,25.0,41,30.32,10.0,Calm,Calm,-,N/A,,Clear,0,2012-12-12 19:53:00
2:53 PM,48.9,25.0,39,30.31,10.0,Calm,Calm,-,N/A,,Clear,0,2012-12-12 20:53:00
3:53 PM,50.0,24.1,36,30.31,10.0,NNE,3.5,-,N/A,,Clear,20,2012-12-12 21:53:00
4:53 PM,45.0,28.0,52,30.30,10.0,NNW,3.5,-,N/A,,Clear,340,2012-12-12 22:53:00
5:53 PM,41.0,30.9,67,30.32,10.0,NNW,4.6,-,N/A,,Clear,330,2012-12-12 23:53:00
6:53 PM,37.9,30.9,76,30.34,10.0,North,3.5,-,N/A,,Clear,10,2012-12-13 00:53:00
7:53 PM,37.9,28.9,70,30.35,10.0,Calm,Calm,-,N/A,,Clear,0,2012-12-13 01:53:00
8:53 PM,36.0,28.9,76,30.34,10.0,Calm,Calm,-,N/A,,Clear,0,2012-12-13 02:53:00
9:53 PM,33.1,30.0,89,30.35,10.0,Calm,Calm,-,N/A,,Clear,0,2012-12-13 03:53:00
10:53 PM,32.0,28.0,85,30.34,10.0,Calm,Calm,-,N/A,,Clear,0,2012-12-13 04:53:00
11:53 PM,30.9,28.9,92,30.35,10.0,Calm,Calm,-,N/A,,Clear,0,2012-12-13 05:53:00